STARLINK-11157, 60122

Orbit data source: Space-Track

STARLINK-11157, 60122 is a payload satellite owned by SpaceX/Seattle (US) in LEO that was launched on Mon, 24 Jun 2024 UTC via an FALCON 9 launch vehicle from the Air Force Western Test Range (AFWTR). Payload-class satellites include a variety of spacecraft equipped with specific instruments for various scientific and technological missions. These include communications satellites like Starlink; space stations such as the ISS; scientific satellites like the Hubble; Earth observation satellites from companies like Planet Labs, Umbra, and HawkEye 360; GPS; miniature CubeSats for education and research; and military/defense satellites.

Loading next visibility...
Identifier
60122, 2024-118K
Orbit
LEO
Country
Flag of USUS
Related business
Manufacturer
SpaceX/Seattle
Mission
Operational Commercial Communications
Bus & Motor
STARLINK V2MD, Unknown motor
Mass
960 kg wet, ~910 kg dry
Launch date (UTC)
2024-06-24 (2 years ago)
Launch vehicle
FALCON 9
Launch site
Air Force Western Test Range (AFWTR)
Object type
Payload
Rocket body
Debris
Shape & HBR
Box + 2 Pan, 18.1 m
Radar Cross Section
36.964 m², Large (>1 m²)

Expand to show TLE details & history
Last TLE update: 18 hours ago

TLE from 18 hours ago
0 STARLINK-11157
1 60122U 24118K   26132.66259581  .00001167  00000-0  14490-4 0  9990
2 60122  53.1591 265.6996 0000966  75.9256 284.1869 15.69704504108047
Epoch: 2026-05-12T15:54Z
TLE epoch observation values (Epoch: 2026-05-12T15:54:08.277Z)
Latitude
-0.00007°
Longitude
156.73131°
Altitude
360.498 km
Speed
7.694 km/s
True Right ascension
17h 42m 47s
True Declination
0° 00' 00"
Sunlit
Object was in full shadow at epoch
Visualization orbit readout
Latitude
Unknown
Longitude
Unknown
Altitude
Unknown
Speed
Unknown
Apparent Right ascension
Unknown
Apparent Declination
Unknown
Sunlit
N/A
Visualization observer readout
Local Sidereal Time
18:19:51
Azimuth
Unknown
Elevation
Unknown
Doppler factor
Unknown
Orbital elements
Apogee altitude
360.654 km
Perigee altitude
359.352 km
Semi-major axis
6,738.14 km
Eccentricity
0.0001
Inclination
53.1591°
RAAN
265.6996°
Arg. of periapsis
75.9256°
True anomaly
284.17617°
Mean anomaly
284.1869°
Eccentric anomaly
284.18153°
Mean motion
3.92404 °/min
Orbital period
91.74 mins
BSTAR
0.00001449
Loading maneuver chart data...
Computing Atmospheric mass density...
Loading historical data...
Loading historical data...
Loading historical data...
Loading historical data...
Loading historical data...
Loading historical data...
Loading historical data...

Documentation

Showing up to 5 results
|